Satellite: NOAA-18
Catalog number: 28654
Epoch time:      06208.34379464
Element set:     568
Inclination:      098.7888 deg
RA of node:       150.7648 deg
Eccentricity:    0.0015131
Arg of perigee:   105.7601 deg
Mean anomaly:     254.5261 deg
Mean motion:   14.10975904 rev/day
Decay rate:       -2.5e-07 rev/day^2
Epoch rev:            6104
Checksum:              314

/EX
SB KEPS @ AMSAT  $ORB06208.M
Orbital Elements  06208.MISC

HR AMSAT ORBITAL ELEMENTS FOR MANNED AND MISCELLANEOUS SATELLITES
FROM WA5QGD FORT WORTH,TX July 27, 2006
Send SUBSCRIBE KEPS/UNSUBSCRIBE KEPS to majordomo@amsat.org only
BID: ORB06208.M
TO ALL RADIO AMATEURS BT

Satellite: HUBBLE
Catalog number: 20580
Epoch time:      06207.94912608
Element set:    0666
Inclination:      028.4668 deg
RA of node:       150.6818 deg
Eccentricity:    0.0003805
Arg of perigee:   241.0881 deg
Mean anomaly:     118.9326 deg
Mean motion:   15.00067609 rev/day
Decay rate:       3.12e-06 rev/day^2
Epoch rev:           69107
Checksum:              292

Satellite: UARS
Catalog number: 21701
Epoch time:      06208.65265926
Element set:     828
Inclination:      056.9789 deg
RA of node:       277.9803 deg
Eccentricity:    0.0096917
Arg of perigee:   288.2499 deg
Mean anomaly:     070.8044 deg
Mean motion:   15.44028823 rev/day
Decay rate:      2.717e-05 rev/day^2
Epoch rev:           81555
Checksum:              349

Satellite: PO-34
Catalog number: 25520
Epoch time:      06207.95941699
Element set:    0553
Inclination:      028.4581 deg
RA of node:       125.0644 deg
Eccentricity:    0.0005092
Arg of perigee:   313.5866 deg
Mean anomaly:     046.4304 deg
Mean motion:   15.16752584 rev/day
Decay rate:       4.33e-06 rev/day^2
Epoch rev:           42809
Checksum:              307

Satellite: ISS
Catalog number: 25544
Epoch time:      06208.95844907
Element set:     387
Inclination:      051.6353 deg
RA of node:       337.4240 deg
Eccentricity:    0.0008520
Arg of perigee:   123.7092 deg
Mean anomaly:     015.1943 deg
Mean motion:   15.76095643 rev/day
Decay rate:     1.3492e-04 rev/day^2
Epoch rev:           43959
Checksum:              310

Satellite: OO-38
Catalog number: 26063
Epoch time:      06207.73597906
Element set:     676
Inclination:      100.1875 deg
RA of node:       145.8968 deg
Eccentricity:    0.0037006
Arg of perigee:   356.6728 deg
Mean anomaly:     003.4203 deg
Mean motion:   14.35771991 rev/day
Decay rate:       -1.9e-07 rev/day^2
Epoch rev:           34034
Checksum:              319

Satellite: NO-45
Catalog number: 26932
Epoch time:      06208.66414999
Element set:     371
Inclination:      067.0555 deg
RA of node:       263.1323 deg
Eccentricity:    0.0008321
Arg of perigee:   246.7905 deg
Mean anomaly:     113.2320 deg
Mean motion:   14.29530361 rev/day
Decay rate:       -6.4e-07 rev/day^2
Epoch rev:           25175
Checksum:              289

Satellite: UWE-1
Catalog number: 28892
Epoch time:      06208.71771910
Element set:     511
Inclination:      098.1593 deg
RA of node:       106.2723 deg
Eccentricity:    0.0018512
Arg of perigee:   046.9484 deg
Mean anomaly:     313.3276 deg
Mean motion:   14.59376494 rev/day
Decay rate:        7.3e-07 rev/day^2
Epoch rev:            3988
Checksum:              320

Satellite: CO-58
Catalog number: 28895
Epoch time:      06207.88469676
Element set:     495
Inclination:      098.1662 deg
RA of node:       105.5485 deg
Eccentricity:    0.0018950
Arg of perigee:   050.2858 deg
Mean anomaly:     310.0077 deg
Mean motion:   14.59427774 rev/day
Decay rate:        9.3e-07 rev/day^2
Epoch rev:            3964
Checksum:              356

Satellite: NCUBE2
Catalog number: 28897
Epoch time:      06206.34958902
Element set:      97
Inclination:      098.1609 deg
RA of node:       104.0226 deg
Eccentricity:    0.0018654
Arg of perigee:   055.9535 deg
Mean anomaly:     304.3426 deg
Mean motion:   14.59583221 rev/day
Decay rate:        9.7e-07 rev/day^2
Epoch rev:            3169
Checksum:              317

/EX



----
Via the keps mailing list at AMSAT.ORG courtesy of AMSAT-NA.
To unsubscribe, send "unsubscribe keps" to Majordomo@amsat.org

--- ViaMAIL!/WC v1.60d
 * Origin: Chowdanet (401-724-4410) telnet://chowdanet.com  (1:323/120)